CW8285 Weather Reports


time (UTC)temp
C
wind
direction
speed
KPH
gust
KPH
rain 1hr
cm
rain 24hr
cm
rain mn
cm
humidity
%
barometer
mb
20240222105923 1 11 1.6 3.2 0.00 0.00 0.00 79 1016.5
20240222105422 1 4 1.6 1.6 0.00 0.00 0.00 79 1016.8
20240222104919 1 9 1.6 1.6 0.00 0.00 0.00 78 1016.8
20240222104419 1 347 0.0 0.0 0.00 0.00 0.00 77 1016.8
20240222103916 1 341 0.0 0.0 0.00 0.00 0.00 78 1016.9
20240222103415 1 350 0.0 1.6 0.00 0.00 0.00 80 1017.0
20240222102913 2 342 0.0 1.6 0.00 0.00 0.00 75 1017.0
20240222102410 1 5 1.6 1.6 0.00 0.00 0.00 76 1017.0
20240222101911 1 32 1.6 3.2 0.00 0.00 0.00 77 1016.8
20240222101410 2 343 0.0 1.6 0.00 0.00 0.00 78 1016.9
20240222100909 2 347 0.0 0.0 0.00 0.00 0.00 75 1017.0
20240222100407 2 343 0.0 1.6 0.00 0.00 0.00 74 1016.8
20240222095906 2 357 0.0 1.6 0.00 0.00 0.00 75 1016.9
20240222095402 2 356 0.0 1.6 0.00 0.00 0.00 74 1017.0
20240222094900 2 343 0.0 0.0 0.00 0.00 0.00 74 1016.9
20240222094359 2 12 1.6 1.6 0.00 0.00 0.00 74 1017.0
20240222093857 2 345 0.0 0.0 0.00 0.00 0.00 74 1017.0
20240222093356 2 7 1.6 1.6 0.00 0.00 0.00 74 1016.8
20240222092856 2 345 0.0 1.6 0.00 0.00 0.00 74 1016.9
20240222092355 2 344 0.0 0.0 0.00 0.00 0.00 73 1017.1
20240222091854 2 343 0.0 1.6 0.00 0.00 0.00 74 1017.0
20240222091354 3 343 0.0 0.0 0.00 0.00 0.00 72 1016.8
20240222090852 3 317 1.6 1.6 0.00 0.00 0.00 72 1017.0
20240222090351 2 343 0.0 1.6 0.00 0.00 0.00 73 1017.0
20240222085850 2 345 0.0 0.0 0.00 0.00 0.00 73 1017.0
20240222085348 3 343 0.0 1.6 0.00 0.00 0.00 74 1017.0
20240222084847 2 328 1.6 1.6 0.00 0.00 0.00 72 1016.9
20240222084345 2 337 0.0 0.0 0.00 0.00 0.00 73 1016.9
20240222083843 3 335 0.0 1.6 0.00 0.00 0.00 73 1017.1
20240222083343 3 339 0.0 0.0 0.00 0.00 0.00 72 1016.9
20240222082842 3 335 0.0 0.0 0.00 0.00 0.00 72 1017.0
20240222082338 3 345 0.0 0.0 0.00 0.00 0.00 71 1016.8
20240222081834 3 346 0.0 1.6 0.00 0.00 0.00 71 1016.7
20240222081332 3 327 0.0 1.6 0.00 0.00 0.00 70 1016.8
20240222080231 3 328 1.6 1.6 0.00 0.00 0.00 70 1017.3
20240222075730 3 328 1.6 1.6 0.00 0.00 0.00 71 1017.7
20240222075228 3 345 0.0 1.6 0.00 0.00 0.00 72 1017.9
20240222074728 3 328 1.6 3.2 0.00 0.00 0.00 71 1017.7
20240222074227 3 328 1.6 3.2 0.00 0.00 0.00 70 1017.7
20240222073726 3 345 0.0 0.0 0.00 0.00 0.00 72 1017.1
20240222073225 3 351 0.0 0.0 0.00 0.00 0.00 72 1017.2
20240222072724 3 348 0.0 0.0 0.00 0.00 0.00 70 1017.2
20240222072223 3 348 1.6 1.6 0.00 0.00 0.00 69 1017.6
20240222071723 3 344 0.0 0.0 0.00 0.00 0.00 70 1017.8
20240222071222 4 336 0.0 1.6 0.00 0.00 0.00 71 1017.7
20240222070720 4 331 1.6 3.2 0.00 0.00 0.00 67 1017.9
20240222070219 4 337 0.0 1.6 0.00 0.00 0.00 69 1018.0
20240222065717 5 353 0.0 1.6 0.00 0.00 0.00 69 1018.3
20240222065216 4 320 1.6 3.2 0.00 0.00 0.00 67 1018.1
20240222064716 5 316 1.6 1.6 0.00 0.00 0.00 66 1018.3
20240222064215 5 326 1.6 3.2 0.00 0.00 0.00 66 1018.3
20240222063716 4 331 1.6 1.6 0.00 0.00 0.00 69 1018.2
20240222063215 3 345 1.6 1.6 0.00 0.00 0.00 72 1018.5
20240222062714 3 345 0.0 0.0 0.00 0.00 0.00 72 1018.2
20240222062213 4 342 0.0 0.0 0.00 0.00 0.00 71 1018.3
20240222061711 3 335 1.6 1.6 0.00 0.00 0.00 70 1018.3
20240222061211 3 345 0.0 0.0 0.00 0.00 0.00 70 1018.1
20240222060710 3 345 1.6 1.6 0.00 0.00 0.00 69 1018.1
20240222060210 3 346 0.0 1.6 0.00 0.00 0.00 70 1018.0
20240222055710 3 343 0.0 1.6 0.00 0.00 0.00 71 1017.9
20240222055208 3 339 1.6 1.6 0.00 0.00 0.00 71 1017.9
20240222054706 3 303 1.6 1.6 0.00 0.00 0.00 72 1017.8
20240222054204 3 348 0.0 0.0 0.00 0.00 0.00 72 1018.0
20240222053702 3 346 0.0 0.0 0.00 0.00 0.00 72 1018.3
20240222053200 3 338 0.0 1.6 0.00 0.00 0.00 72 1018.5
20240222052659 3 356 0.0 1.6 0.00 0.00 0.00 72 1018.4
20240222052159 3 343 1.6 1.6 0.00 0.00 0.00 73 1018.2
20240222051658 3 359 1.6 1.6 0.00 0.00 0.00 73 1018.3
20240222051157 3 332 0.0 0.0 0.00 0.00 0.00 74 1018.7
20240222050655 3 354 0.0 1.6 0.00 0.00 0.00 74 1018.7
20240222050153 2 1 0.0 1.6 0.00 0.00 0.00 74 1018.6
20240222045651 2 345 0.0 0.0 0.00 0.00 0.00 75 1018.7
20240222045151 2 353 0.0 1.6 0.00 0.00 0.00 75 1018.5
20240222044650 2 342 0.0 0.0 0.00 0.00 0.00 75 1018.7
20240222044148 2 327 0.0 1.6 0.00 0.00 0.00 74 1018.7
20240222043648 2 357 0.0 1.6 0.00 0.00 0.00 74 1018.6
20240222043147 2 342 0.0 0.0 0.00 0.00 0.00 74 1019.0
20240222042646 2 1 0.0 1.6 0.00 0.00 0.00 75 1018.7
20240222042142 2 350 0.0 1.6 0.00 0.00 0.00 74 1018.7
20240222041638 2 356 0.0 1.6 0.00 0.00 0.00 74 1018.6
20240222041135 2 355 0.0 1.6 0.00 0.00 0.00 75 1019.0
20240222040633 2 3 1.6 1.6 0.00 0.00 0.00 75 1018.7
20240222040132 2 349 0.0 0.0 0.00 0.00 0.00 74 1019.1
20240222035631 2 354 0.0 1.6 0.00 0.00 0.00 74 1019.0
20240222035131 2 11 1.6 1.6 0.00 0.00 0.00 76 1019.3
20240222034630 2 17 1.6 1.6 0.00 0.00 0.00 75 1019.0
20240222034127 1 16 1.6 3.2 0.00 0.00 0.00 76 1019.1
20240222033624 1 15 1.6 1.6 0.00 0.00 0.00 77 1019.1
20240222033124 1 15 1.6 1.6 0.00 0.00 0.00 77 1019.0
20240222032623 1 2 0.0 3.2 0.00 0.00 0.00 77 1019.1
20240222032122 1 18 1.6 1.6 0.00 0.00 0.00 76 1019.2
20240222031620 2 1 0.0 1.6 0.00 0.00 0.00 78 1019.4
20240222031119 2 346 0.0 1.6 0.00 0.00 0.00 74 1019.4
20240222030618 2 4 1.6 1.6 0.00 0.00 0.00 75 1019.4
20240222030115 2 356 0.0 1.6 0.00 0.00 0.00 75 1019.4
20240222025613 2 18 1.6 1.6 0.00 0.00 0.00 74 1019.4
20240222025113 2 12 1.6 1.6 0.00 0.00 0.00 73 1019.5
20240222024611 2 11 1.6 1.6 0.00 0.00 0.00 77 1019.5
20240222024111 2 356 0.0 3.2 0.00 0.00 0.00 73 1019.4
20240222023610 2 355 0.0 3.2 0.00 0.00 0.00 73 1019.5
20240222023108 2 5 0.0 3.2 0.00 0.00 0.00 72 1019.4
20240222022607 2 12 1.6 1.6 0.00 0.00 0.00 71 1019.7
20240222022106 2 3 0.0 3.2 0.00 0.00 0.00 71 1019.5
20240222021605 2 30 3.2 3.2 0.00 0.00 0.00 72 1019.4
20240222021104 2 16 1.6 3.2 0.00 0.00 0.00 72 1019.3
20240222020604 3 355 0.0 1.6 0.00 0.00 0.00 70 1019.5
20240222020103 2 3 0.0 3.2 0.00 0.00 0.00 70 1019.6
20240222015603 2 2 0.0 3.2 0.00 0.00 0.00 73 1019.4
20240222015102 3 14 1.6 3.2 0.00 0.00 0.00 71 1019.4
20240222014601 2 32 1.6 3.2 0.00 0.00 0.00 69 1019.5
20240222014100 2 347 0.0 0.0 0.00 0.00 0.00 70 1019.5
20240222013558 3 345 0.0 0.0 0.00 0.00 0.00 68 1019.7
20240222013057 3 3 0.0 1.6 0.00 0.00 0.00 68 1019.6
20240222012554 3 6 1.6 1.6 0.00 0.00 0.00 68 1019.8
20240222012054 3 19 1.6 1.6 0.00 0.00 0.00 70 1019.8
20240222011552 3 17 1.6 3.2 0.00 0.00 0.00 68 1020.0
20240222011051 3 347 0.0 0.0 0.00 0.00 0.00 69 1019.6
20240222010550 3 349 0.0 0.0 0.00 0.00 0.00 67 1019.7
20240222010051 3 19 1.6 1.6 0.00 0.00 0.00 67 1019.8
20240222005549 3 5 1.6 1.6 0.00 0.00 0.00 67 1020.0
20240222005048 3 17 1.6 1.6 0.00 0.00 0.00 66 1019.8
20240222004548 4 344 0.0 0.0 0.00 0.00 0.00 65 1019.8
20240222004046 4 17 1.6 1.6 0.00 0.00 0.00 67 1019.8
20240222003543 5 346 0.0 1.6 0.00 0.00 0.00 66 1019.7
20240222003042 5 14 1.6 1.6 0.00 0.00 0.00 65 1019.8
20240222002542 5 0 0.0 1.6 0.00 0.00 0.00 65 1019.8
20240222002040 5 346 0.0 0.0 0.00 0.00 0.00 64 1019.5
20240222001538 5 29 1.6 3.2 0.00 0.00 0.00 64 1019.6
20240222001035 5 13 1.6 1.6 0.00 0.00 0.00 61 1020.0
20240222000534 5 3 0.0 1.6 0.00 0.00 0.00 62 1019.8
20240222000033 6 1 0.0 1.6 0.00 0.00 0.00 60 1019.8
20240221235529 6 357 0.0 0.0 0.00 0.00 0.00 60 1019.9
20240221235028 6 354 0.0 1.6 0.00 0.00 0.00 58 1019.9
20240221234524 6 356 0.0 1.6 0.00 0.00 0.00 56 1020.2
20240221234023 7 0 0.0 1.6 0.00 0.00 0.00 54 1019.9
20240221233521 7 21 1.6 1.6 0.00 0.00 0.00 53 1020.0
20240221233019 7 9 1.6 1.6 0.00 0.00 0.00 52 1019.8
20240221232516 8 355 0.0 1.6 0.00 0.00 0.00 52 1019.6
20240221232015 8 1 0.0 1.6 0.00 0.00 0.00 51 1019.8
20240221231511 8 350 0.0 0.0 0.00 0.00 0.00 49 1019.8
20240221230956 9 351 0.0 0.0 0.00 0.00 0.00 48 1020.2
20240221230455 10 354 0.0 1.6 0.00 0.00 0.00 48 1019.8
20240221225955 10 328 3.2 4.8 0.00 0.00 0.00 44 1019.8
20240221225454 10 322 1.6 1.6 0.00 0.00 0.00 45 1019.9
20240221224954 11 346 0.0 4.8 0.00 0.00 0.00 44 1019.7
20240221224453 11 325 1.6 8.0 0.00 0.00 0.00 43 1019.7
20240221223951 11 322 1.6 1.6 0.00 0.00 0.00 45 1019.8
20240221223451 11 347 0.0 0.0 0.00 0.00 0.00 44 1019.9
20240221222951 11 294 3.2 3.2 0.00 0.00 0.00 42 1019.9
20240221222449 11 298 4.8 4.8 0.00 0.00 0.00 42 1019.6
20240221221946 11 355 0.0 1.6 0.00 0.00 0.00 43 1019.8
20240221221447 11 357 0.0 1.6 0.00 0.00 0.00 44 1019.7
20240221220940 11 91 4.8 8.0 0.00 0.00 0.00 43 1019.8
20240221220439 11 300 1.6 4.8 0.00 0.00 0.00 42 1019.7
20240221215938 11 349 1.6 1.6 0.00 0.00 0.00 43 1019.5
20240221215438 11 114 4.8 4.8 0.00 0.00 0.00 43 1019.6
20240221214935 11 68 4.8 9.7 0.00 0.00 0.00 42 1019.6
20240221214435 11 106 4.8 9.7 0.00 0.00 0.00 43 1019.7
20240221213934 11 325 1.6 8.0 0.00 0.00 0.00 41 1019.5
20240221213433 12 94 6.4 8.0 0.00 0.00 0.00 41 1019.7
20240221212932 11 303 3.2 4.8 0.00 0.00 0.00 42 1019.8
20240221212431 12 57 11.3 11.3 0.00 0.00 0.00 40 1019.7
20240221211930 12 349 0.0 3.2 0.00 0.00 0.00 40 1019.7
20240221211429 12 84 6.4 8.0 0.00 0.00 0.00 41 1019.7
20240221210927 13 359 1.6 4.8 0.00 0.00 0.00 39 1019.6
20240221210425 12 32 1.6 12.9 0.00 0.00 0.00 39 1019.8
20240221205924 14 154 3.2 9.7 0.00 0.00 0.00 36 1019.7
20240221205422 13 322 0.0 3.2 0.00 0.00 0.00 36 1019.9
20240221204921 14 86 4.8 8.0 0.00 0.00 0.00 36 1020.2
20240221204419 13 338 0.0 3.2 0.00 0.00 0.00 36 1019.9
20240221203917 15 6 1.6 3.2 0.00 0.00 0.00 33 1020.0
20240221203416 14 307 0.0 4.8 0.00 0.00 0.00 32 1020.4
20240221202915 14 320 1.6 4.8 0.00 0.00 0.00 34 1020.3
20240221202414 14 290 4.8 4.8 0.00 0.00 0.00 32 1020.3
20240221201914 14 276 4.8 4.8 0.00 0.00 0.00 32 1020.7
20240221201414 15 312 3.2 4.8 0.00 0.00 0.00 32 1020.5
20240221200913 15 322 0.0 3.2 0.00 0.00 0.00 32 1020.5
20240221200412 15 318 1.6 4.8 0.00 0.00 0.00 32 1020.6
20240221195912 16 310 0.0 1.6 0.00 0.00 0.00 31 1020.6
20240221195409 16 323 0.0 1.6 0.00 0.00 0.00 33 1020.7
20240221194909 15 267 1.6 4.8 0.00 0.00 0.00 34 1020.7
20240221194407 15 311 1.6 4.8 0.00 0.00 0.00 32 1020.7
20240221193907 14 52 3.2 4.8 0.00 0.00 0.00 34 1020.7
20240221193406 15 294 1.6 3.2 0.00 0.00 0.00 33 1020.6
20240221192906 14 284 6.4 8.0 0.00 0.00 0.00 33 1020.9
20240221192403 13 312 1.6 4.8 0.00 0.00 0.00 34 1020.9
20240221191901 14 300 4.8 8.0 0.00 0.00 0.00 34 1020.7
20240221191359 13 317 3.2 3.2 0.00 0.00 0.00 34 1021.1
20240221190858 13 291 4.8 9.7 0.00 0.00 0.00 35 1021.2
20240221190355 13 316 3.2 8.0 0.00 0.00 0.00 35 1021.2
20240221185854 13 294 3.2 8.0 0.00 0.00 0.00 35 1021.5
20240221185352 12 245 4.8 4.8 0.00 0.00 0.00 34 1021.2
20240221184847 12 327 3.2 4.8 0.00 0.00 0.00 35 1021.3
20240221184346 13 286 1.6 3.2 0.00 0.00 0.00 35 1021.6
20240221183846 12 282 6.4 9.7 0.00 0.00 0.00 36 1021.7
20240221183344 12 263 8.0 9.7 0.00 0.00 0.00 35 1021.7
20240221182843 12 318 0.0 4.8 0.00 0.00 0.00 36 1021.7
20240221182339 12 315 4.8 4.8 0.00 0.00 0.00 37 1021.9
20240221181838 12 241 1.6 4.8 0.00 0.00 0.00 35 1022.0
20240221181337 12 287 4.8 8.0 0.00 0.00 0.00 36 1022.2
20240221180836 12 283 4.8 4.8 0.00 0.00 0.00 36 1022.6
20240221180336 11 298 6.4 8.0 0.00 0.00 0.00 37 1022.6
20240221175836 11 284 4.8 8.0 0.00 0.00 0.00 35 1023.1
20240221175335 11 272 4.8 8.0 0.00 0.00 0.00 37 1023.5
20240221174833 12 296 4.8 9.7 0.00 0.00 0.00 35 1023.2
20240221174332 12 321 3.2 4.8 0.00 0.00 0.00 38 1023.2
20240221173831 11 335 3.2 8.0 0.00 0.00 0.00 40 1023.1
20240221173329 11 324 3.2 4.8 0.00 0.00 0.00 40 1023.5
20240221172827 12 329 0.0 4.8 0.00 0.00 0.00 37 1023.5
20240221172324 11 335 3.2 4.8 0.00 0.00 0.00 40 1023.4
20240221171803 11 312 4.8 8.0 0.00 0.00 0.00 42 1023.5
20240221171302 11 206 0.0 9.7 0.00 0.00 0.00 40 1023.5
20240221170800 10 233 3.2 3.2 0.00 0.00 0.00 39 1023.5
20240221170300 10 272 4.8 8.0 0.00 0.00 0.00 43 1024.1
20240221165759 10 277 6.4 11.3 0.00 0.00 0.00 41 1023.8
20240221165256 10 281 4.8 4.8 0.00 0.00 0.00 42 1024.4
20240221164741 10 280 3.2 4.8 0.00 0.00 0.00 43 1024.4
20240221164241 10 299 3.2 8.0 0.00 0.00 0.00 44 1023.8
20240221163740 10 287 3.2 8.0 0.00 0.00 0.00 44 1023.9
20240221163238 9 298 4.8 4.8 0.00 0.00 0.00 45 1023.8
20240221162736 9 289 3.2 4.8 0.00 0.00 0.00 44 1024.3
20240221162234 9 330 0.0 3.2 0.00 0.00 0.00 44 1024.3
20240221161721 8 304 3.2 3.2 0.00 0.00 0.00 45 1024.4
20240221161220 8 290 6.4 9.7 0.00 0.00 0.00 46 1024.6
20240221160720 7 333 1.6 1.6 0.00 0.00 0.00 49 1024.8
20240221160218 7 276 4.8 4.8 0.00 0.00 0.00 49 1024.7
20240221155717 7 270 4.8 4.8 0.00 0.00 0.00 49 1025.1
20240221155215 7 316 1.6 4.8 0.00 0.00 0.00 48 1025.1
20240221154713 7 300 3.2 8.0 0.00 0.00 0.00 49 1025.2
20240221154211 7 266 4.8 4.8 0.00 0.00 0.00 50 1025.1
20240221153710 7 290 3.2 4.8 0.00 0.00 0.00 53 1025.2
20240221153205 7 291 4.8 4.8 0.00 0.00 0.00 52 1025.1
20240221152704 7 321 3.2 4.8 0.00 0.00 0.00 52 1025.0
20240221152201 7 295 1.6 3.2 0.00 0.00 0.00 51 1025.0
20240221151701 7 28 1.6 3.2 0.00 0.00 0.00 49 1025.1
20240221151200 7 256 1.6 1.6 0.00 0.00 0.00 49 1025.0
20240221150651 7 350 1.6 1.6 0.00 0.00 0.00 51 1025.2
20240221150151 7 343 0.0 1.6 0.00 0.00 0.00 52 1025.0
20240221145650 6 261 1.6 3.2 0.00 0.00 0.00 54 1024.9
20240221145149 6 47 3.2 3.2 0.00 0.00 0.00 54 1025.1
20240221144648 6 345 0.0 3.2 0.00 0.00 0.00 56 1025.1
20240221144148 5 67 3.2 4.8 0.00 0.00 0.00 56 1025.2
20240221143647 5 282 1.6 3.2 0.00 0.00 0.00 57 1025.4
20240221143147 5 7 1.6 3.2 0.00 0.00 0.00 58 1025.2
20240221142647 5 107 1.6 3.2 0.00 0.00 0.00 59 1025.6
20240221142146 5 121 1.6 3.2 0.00 0.00 0.00 58 1025.4
20240221141646 5 27 1.6 1.6 0.00 0.00 0.00 60 1025.2
20240221141144 4 345 0.0 1.6 0.00 0.00 0.00 61 1025.1
20240221140644 4 336 0.0 1.6 0.00 0.00 0.00 63 1025.4
20240221140142 4 335 0.0 1.6 0.00 0.00 0.00 64 1025.2
20240221135640 3 6 0.0 1.6 0.00 0.00 0.00 65 1025.5
20240221135138 3 0 0.0 1.6 0.00 0.00 0.00 67 1025.2
20240221134637 3 347 0.0 1.6 0.00 0.00 0.00 69 1025.1
20240221134136 2 343 0.0 1.6 0.00 0.00 0.00 70 1025.4
20240221133636 2 350 0.0 0.0 0.00 0.00 0.00 74 1025.2
20240221133134 2 354 0.0 1.6 0.00 0.00 0.00 75 1025.0
20240221132632 1 13 0.0 3.2 0.00 0.00 0.00 75 1025.1
20240221132132 1 46 1.6 3.2 0.00 0.00 0.00 73 1025.0
20240221131632 0 30 0.0 3.2 0.00 0.00 0.00 78 1024.8
20240221131132 0 354 0.0 0.0 0.00 0.00 0.00 79 1024.9
20240221130631 0 26 1.6 1.6 0.00 0.00 0.00 81 1024.8
20240221130129 0 41 1.6 3.2 0.00 0.00 0.00 81 1024.9
20240221125627 0 4 0.0 3.2 0.00 0.00 0.00 81 1024.7
20240221125125 -1 88 3.2 4.8 0.00 0.00 0.00 83 1024.7
20240221124625 -1 86 3.2 4.8 0.00 0.00 0.00 85 1024.9
20240221124124 -1 97 4.8 4.8 0.00 0.00 0.00 84 1024.5
20240221123623 -1 86 3.2 4.8 0.00 0.00 0.00 85 1024.8
20240221123123 -1 67 1.6 4.8 0.00 0.00 0.00 85 1024.7
20240221122622 -1 76 3.2 4.8 0.00 0.00 0.00 85 1024.6
20240221122121 -1 93 3.2 4.8 0.00 0.00 0.00 84 1024.4
20240221121619 -2 65 3.2 4.8 0.00 0.00 0.00 87 1024.5
20240221121119 -2 14 1.6 1.6 0.00 0.00 0.00 86 1024.5
20240221120618 -2 359 0.0 1.6 0.00 0.00 0.00 86 1024.6
20240221120118 -1 354 0.0 1.6 0.00 0.00 0.00 86 1024.3
20240221115616 -1 343 0.0 0.0 0.00 0.00 0.00 85 1024.3
20240221115115 -1 21 1.6 1.6 0.00 0.00 0.00 84 1024.3
20240221114614 -1 354 0.0 1.6 0.00 0.00 0.00 83 1024.2
20240221114113 -1 33 1.6 3.2 0.00 0.00 0.00 82 1024.3
20240221113612 -1 67 3.2 3.2 0.00 0.00 0.00 82 1024.2
20240221113112 -1 6 0.0 1.6 0.00 0.00 0.00 82 1024.1
20240221112611 -1 65 3.2 3.2 0.00 0.00 0.00 81 1024.3
20240221112109 -1 25 1.6 3.2 0.00 0.00 0.00 83 1023.9
20240221111607 -1 27 1.6 3.2 0.00 0.00 0.00 84 1024.1
20240221111105 -1 349 0.0 1.6 0.00 0.00 0.00 83 1023.9
20240221110604 -1 7 0.0 1.6 0.00 0.00 0.00 83 1023.8